Weather History for LGLM - October, 2011

Change the Weather History Date:

Tuesday, October 18, 2011

  Actual Average Record
Temperature  
Mean Temperature 47 °F -  
Max Temperature 52 °F 63 °F 80 °F (2004)
Min Temperature 42 °F 50 °F 42 °F (2011)
Degree Days  
Heating Degree Days 18    
Moisture  
Dew Point 41 °F    
Average Humidity 76    
Maximum Humidity 93    
Minimum Humidity 62    
Precipitation  
Precipitation 0.00 in 0.08 in - ()
Sea Level Pressure  
Sea Level Pressure 30.14 in    
Wind  
Wind Speed 8 mph ()    
Max Wind Speed 16 mph    
Max Gust Speed -    
Visibility 6.2 miles    
Events Rain    
Averages and records for this station are not official NWS values.
T = Trace of Precipitation, MM = Missing Value Source: Averaged Metar Reports

Daily Weather History Graph

Daily Weather History Graph

Search for Another Location

Airport or City:

Trip Planner

Search our weather history database for the weather conditions in past years. The results will help you decide how hot, cold, wet, or windy it might be!

Date:

Astronomy

Oct. 18, 2011 Rise Set
Actual Time 7:31 AM EEST 6:35 PM EEST
Civil Twilight 7:04 AM EEST 7:03 PM EEST
Nautical Twilight 6:33 AM EEST 7:34 PM EEST
Astronomical Twilight 6:01 AM EEST 8:05 PM EEST
Moon 10:57 PM EEST (10/18) 1:08 PM EEST (10/18)
Length of Visible Light 11h 58m
Length of Day
11h 03m
Waning Gibbous, 68% of the Moon is Illuminated
Oct 18
Waning Gibbous
Oct 20
Last Quarter
Oct 26
New
Nov 2
First Quarter
Nov 10
Full

Hourly Weather History & Observations

Time (EEST) Temp. Windchill Dew Point Humidity Pressure Visibility Wind Dir Wind Speed Gust Speed Precip Events Conditions
12:20 AM 50.0 °F - 41.0 °F 71% 30.04 in 6.2 mi North 10.4 mph - N/A   Overcast
12:50 AM 50.0 °F - 41.0 °F 71% 30.04 in 6.2 mi North 15.0 mph - N/A   Overcast
1:20 AM 50.0 °F - 41.0 °F 71% 30.04 in 6.2 mi North 15.0 mph - N/A   Overcast
1:50 AM 50.0 °F - 41.0 °F 71% 30.06 in 6.2 mi NNE 16.1 mph - N/A   Overcast
2:20 AM 50.0 °F - 41.0 °F 71% 30.06 in 6.2 mi NNE 16.1 mph - N/A   Overcast
2:50 AM 50.0 °F - 44.6 °F 82% 30.06 in 6.2 mi NNE 10.4 mph - N/A   Mostly Cloudy
3:00 AM 50 °F - 44 °F 73% 30.07 in 6 mi NNE 10.4 mph - -   Mostly Cloudy
3:20 AM 50.0 °F - 44.6 °F 82% 30.06 in 6.2 mi NNE 10.4 mph - N/A   Mostly Cloudy
3:50 AM 48.2 °F - 42.8 °F 82% 30.06 in 6.2 mi NNE 8.1 mph - N/A   Mostly Cloudy
4:20 AM 48.2 °F - 42.8 °F 82% 30.06 in 6.2 mi NNE 8.1 mph - N/A   Mostly Cloudy
4:50 AM 46.4 °F 44.3 °F 39.2 °F 76% 30.06 in 6.2 mi NNE 4.6 mph - N/A   Mostly Cloudy
5:20 AM 46.4 °F 44.3 °F 39.2 °F 76% 30.06 in 6.2 mi NNE 4.6 mph - N/A   Mostly Cloudy
5:50 AM 46.4 °F - 41.0 °F 81% 30.09 in 6.2 mi Variable 2.3 mph - N/A   Mostly Cloudy
6:20 AM 46.4 °F - 41.0 °F 81% 30.09 in 6.2 mi Calm Calm - N/A   Mostly Cloudy
6:50 AM 44.6 °F - 39.2 °F 81% 30.09 in 6.2 mi Calm Calm - N/A   Mostly Cloudy
7:20 AM 44.6 °F - 39.2 °F 81% 30.09 in 6.2 mi Calm Calm - N/A   Mostly Cloudy
7:50 AM 46.4 °F 43.5 °F 39.2 °F 76% 30.09 in 6.2 mi WNW 5.8 mph - N/A   Mostly Cloudy
8:20 AM 46.4 °F 44.3 °F 39.2 °F 76% 30.12 in 6.2 mi NNW 4.6 mph - N/A Rain Light Rain
8:50 AM 48.2 °F - 41.0 °F 76% 30.12 in 6.2 mi NE 4.6 mph - N/A   Mostly Cloudy
9:00 AM 48 °F - 40 °F 66% 30.14 in 6 mi NE 4.6 mph - - Rain Light Rain
9:20 AM 48.2 °F - 41.0 °F 76% 30.15 in 6.2 mi NE 4.6 mph - N/A   Mostly Cloudy
9:50 AM 48.2 °F - 41.0 °F 76% 30.15 in 6.2 mi East 3.5 mph - N/A   Mostly Cloudy
10:20 AM 48.2 °F - 41.0 °F 76% 30.15 in 6.2 mi East 3.5 mph - N/A   Mostly Cloudy
10:50 AM 51.8 °F - 41.0 °F 67% 30.15 in 6.2 mi ESE 4.6 mph - N/A   Mostly Cloudy
11:20 AM 51.8 °F - 41.0 °F 67% 30.15 in 6.2 mi SE 8.1 mph - N/A   Mostly Cloudy
11:50 AM 51.8 °F - 42.8 °F 71% 30.18 in 5.0 mi SE 11.5 mph - N/A   Overcast
12:20 PM 51.8 °F - 42.8 °F 71% 30.18 in 6.2 mi ESE 11.5 mph - N/A   Mostly Cloudy
12:50 PM 50.0 °F - 44.6 °F 82% 30.18 in 6.2 mi ESE 13.8 mph - N/A Rain Light Rain
1:20 PM 50.0 °F - 44.6 °F 82% 30.18 in 6.2 mi ESE 11.5 mph - N/A Rain Light Rain
2:20 PM 50.0 °F - 42.8 °F 76% 30.18 in 6.2 mi SE 10.4 mph - N/A   Mostly Cloudy
2:50 PM 51.8 °F - 42.8 °F 71% 30.15 in 6.2 mi SE 10.4 mph - N/A   Mostly Cloudy
3:00 PM 51 °F - 42 °F 63% 30.18 in 6 mi SE 10.4 mph - -   Partly Cloudy
3:20 PM 51.8 °F - 42.8 °F 71% 30.15 in 6.2 mi ESE 11.5 mph - N/A   Mostly Cloudy
3:50 PM 51.8 °F - 39.2 °F 62% 30.15 in 6.2 mi ESE 13.8 mph - N/A   Scattered Clouds
4:20 PM 51.8 °F - 39.2 °F 62% 30.15 in 6.2 mi East 13.8 mph - N/A   Scattered Clouds
4:50 PM 53.6 °F - 41.0 °F 62% 30.18 in 6.2 mi ESE 12.7 mph - N/A   Scattered Clouds
5:20 PM 53.6 °F - 41.0 °F 62% 30.18 in 6.2 mi ESE 10.4 mph - N/A   Scattered Clouds
5:50 PM 51.8 °F - 41.0 °F 67% 30.18 in 6.2 mi East 10.4 mph - N/A   Scattered Clouds
6:20 PM 51.8 °F - 41.0 °F 67% 30.18 in 6.2 mi East 10.4 mph - N/A   Scattered Clouds
6:50 PM 50.0 °F - 42.8 °F 76% 30.21 in 6.2 mi East 6.9 mph - N/A   Partly Cloudy
7:20 PM 50.0 °F - 42.8 °F 76% 30.21 in 6.2 mi ESE 6.9 mph - N/A   Partly Cloudy
7:50 PM 48.2 °F - 42.8 °F 82% 30.21 in 6.2 mi East 5.8 mph - N/A   Partly Cloudy
8:20 PM 48.2 °F - 42.8 °F 82% 30.21 in 6.2 mi Variable 3.5 mph - N/A   Partly Cloudy
8:50 PM 44.6 °F 43.1 °F 41.0 °F 87% 30.21 in 6.2 mi Variable 3.5 mph - N/A   Partly Cloudy
9:00 PM 45 °F - 41 °F 82% 30.23 in 6 mi 3.5 mph - -   Scattered Clouds
9:20 PM 44.6 °F 43.1 °F 41.0 °F 87% 30.21 in 6.2 mi Variable 3.5 mph - N/A   Partly Cloudy
9:50 PM 44.6 °F - 41.0 °F 87% 30.21 in 6.2 mi Calm Calm - N/A   Partly Cloudy
10:20 PM 44.6 °F - 41.0 °F 87% 30.21 in 6.2 mi Calm Calm - N/A   Partly Cloudy
10:50 PM 42.8 °F - 41.0 °F 93% 30.24 in 6.2 mi Calm Calm - N/A   Partly Cloudy
11:20 PM 42.8 °F 41.1 °F 41.0 °F 93% 30.24 in 6.2 mi Variable 3.5 mph - N/A   Partly Cloudy
11:50 PM 42.8 °F - 39.2 °F 87% 30.24 in 6.2 mi Calm Calm - N/A   Partly Cloudy